Flag for Germany Weather past 2 weeks in Idar-Oberstein, Rhineland-Palatinate, Germany

Now
63 °F

Thundershowers. Partly sunny.


Feels Like: 63 °F
Forecast: 58 / 73 °F
Wind: 13 mph from East

Location: Hahn

Current Time: Jul 24, 2014 at 6:27:00 PM

Latest Report: Jul 24, 2014 at 5:54 PM


Visibility: N/A

Pressure: 29.98 "Hg

Humidity: 64%

Dew point: 50 °F

Location of Idar-ObersteinLocation

Historic Weather in Idar-Oberstein — Graph

°F

Idar-Oberstein temperature yesterday

Maximum temperature yesterday: 79 °F (at 3:20 PM)
Minimum temperature yesterday: 61 °F (at 4:20 AM)
Average temperature yesterday: 69 °F

Past Weeks' High & Low Weather Summary

 TemperatureHumidityPressure
High86 °F (Jul 18, 3:50 PM)100% (Jul 9, 5:20 PM)30.21 "Hg (Jul 9, 5:20 PM)
Low52 °F (Jul 9, 5:20 PM)31% (Jul 18, 5:50 PM)29.71 "Hg (Jul 9, 5:50 PM)
Average66 °F77%29.99 "Hg
* Reported Jul 9 5:20 PM — Jul 24 5:20 PM, Idar-Oberstein, Weather by CustomWeather, © 2014

Note: Actual official high and low records may vary slightly from our data, if they occured in-between our weather recording intervals... More about our weather records

Advertising

Idar-Oberstein weather history for previous 24 hours

 ConditionsComfort  
Time TempWeatherWind HumidityBarometerVisibility
5:20 PM
Jul 24
59 °FThunderstorms. Partly sunny.12 mph82%30.01 "HgN/A
4:50 PM61 °FThunderstorms. Partly sunny.21 mph77%29.98 "HgN/A
4:20 PM68 °FThunderstorms. Broken clouds.9 mph64%29.95 "HgN/A
3:50 PM68 °FSprinkles. Broken clouds.12 mph60%29.95 "HgN/A
3:20 PM75 °FThundershowers. Scattered clouds.8 mph47%29.95 "HgN/A
2:50 PM72 °FScattered clouds.8 mph53%29.95 "HgN/A
2:20 PM75 °FScattered clouds.8 mph44%29.98 "HgN/A
1:50 PM73 °FScattered clouds.12 mph50%29.98 "HgN/A
1:20 PM72 °FPassing clouds.12 mph53%29.98 "HgN/A
12:50 PM73 °FPassing clouds.12 mph53%29.98 "HgN/A
12:20 PM72 °FPassing clouds.12 mph57%29.98 "HgN/A
11:50 AM72 °FPassing clouds.12 mph57%29.98 "HgN/A
11:20 AM72 °FPassing clouds.10 mph57%29.98 "HgN/A
10:50 AM70 °FPassing clouds.8 mph60%29.98 "HgN/A
10:20 AM70 °FPassing clouds.8 mph60%29.98 "HgN/A
9:50 AM68 °FPassing clouds.7 mph69%29.98 "HgN/A
9:20 AM66 °FPassing clouds.8 mph73%29.98 "HgN/A
8:50 AM64 °FPassing clouds.6 mph73%29.98 "HgN/A
8:20 AM64 °FPassing clouds.3 mph78%29.98 "HgN/A
7:50 AM63 °FSunny.3 mph77%29.98 "Hg10 mi
7:20 AM63 °FSunny.5 mph77%29.98 "Hg10 mi
6:50 AM61 °FSunny.3 mph83%29.98 "Hg10 mi
6:20 AM59 °FClear.6 mph88%29.98 "Hg10 mi
5:50 AM59 °FClear.7 mph88%29.98 "Hg10 mi
5:20 AM59 °FClear.6 mph82%29.98 "Hg10 mi
4:50 AM59 °FClear.8 mph88%29.98 "Hg10 mi
4:20 AM59 °FClear.5 mph82%29.98 "Hg10 mi
3:50 AM63 °FPassing clouds.5 mph77%29.98 "HgN/A
3:20 AM63 °FClear.2 mph73%29.98 "Hg10 mi
2:50 AM64 °FClear.3 mph73%30.01 "Hg10 mi
2:20 AM64 °FClear.3 mph73%30.01 "Hg10 mi
1:50 AM64 °FPassing clouds.3 mph73%30.01 "HgN/A
1:20 AM64 °FPassing clouds.3 mph73%30.01 "HgN/A
12:50 AM66 °FClear.8 mph68%30.01 "Hg10 mi
12:20 AM66 °FClear.9 mph68%30.01 "Hg10 mi
11:50 PM
Jul 23
68 °FClear.10 mph64%30.04 "Hg10 mi
11:20 PM68 °FClear.10 mph64%30.04 "Hg10 mi
10:50 PM68 °FClear.10 mph64%30.04 "Hg10 mi
10:20 PM70 °FPartly sunny.10 mph60%30.04 "HgN/A
9:50 PM70 °FScattered clouds.12 mph60%30.04 "HgN/A
9:20 PM70 °FScattered clouds.10 mph60%30.01 "HgN/A
8:50 PM72 °FPartly sunny.9 mph57%30.01 "HgN/A
8:20 PM72 °FPartly sunny.7 mph61%30.01 "HgN/A
7:50 PM75 °FPartly sunny.6 mph57%30.01 "HgN/A
7:20 PM75 °FPartly sunny.8 mph57%30.01 "HgN/A
6:50 PM73 °FBroken clouds.8 mph65%30.01 "HgN/A
6:20 PM72 °FSprinkles. Partly sunny.8 mph65%30.01 "HgN/A
Weather by CustomWeather, © 2014

See weather overviewHow to use our weather pages